Year,Month,Day,Hour,Minute,Value (Times are PST for insolation in W/m^2)
2011,04,01,00,00,0.00
2011,04,01,00,01,0.00
2011,04,01,00,02,0.00
2011,04,01,00,03,0.00
2011,04,01,00,04,0.00
2011,04,01,00,05,0.00
2011,04,01,00,06,0.00
2011,04,01,00,07,0.00
2011,04,01,00,08,0.00
2011,04,01,00,09,0.00
2011,04,01,00,10,0.00
2011,04,01,00,11,0.00
2011,04,01,00,12,0.00
2011,04,01,00,13,0.00
2011,04,01,00,14,0.00
2011,04,01,00,15,0.00
2011,04,01,00,16,0.00
2011,04,01,00,17,0.00
2011,04,01,00,18,0.00
2011,04,01,00,19,0.00
2011,04,01,00,20,0.00
2011,04,01,00,21,0.00
2011,04,01,00,22,0.00
2011,04,01,00,23,0.00
2011,04,01,00,24,0.00
2011,04,01,00,25,0.00
2011,04,01,00,26,0.00
2011,04,01,00,27,0.00
2011,04,01,00,28,0.00
2011,04,01,00,29,0.00
2011,04,01,00,30,0.00
2011,04,01,00,31,0.00
2011,04,01,00,32,0.00
2011,04,01,00,33,0.00
2011,04,01,00,34,0.00
2011,04,01,00,35,0.00
2011,04,01,00,36,0.00
2011,04,01,00,37,0.00
2011,04,01,00,38,0.00
2011,04,01,00,39,0.00
2011,04,01,00,40,0.00
2011,04,01,00,41,0.00
2011,04,01,00,42,0.00
2011,04,01,00,43,0.00
2011,04,01,00,44,0.00
2011,04,01,00,45,0.00
2011,04,01,00,46,0.00
2011,04,01,00,47,0.00
2011,04,01,00,48,0.00
2011,04,01,00,49,0.00
2011,04,01,00,50,0.00
2011,04,01,00,51,0.00
2011,04,01,00,52,0.00
2011,04,01,00,53,0.00
2011,04,01,00,54,0.00
2011,04,01,00,55,0.00
2011,04,01,00,56,0.00
2011,04,01,00,57,0.00
2011,04,01,00,58,0.00
2011,04,01,00,59,0.00
2011,04,01,01,00,0.00
2011,04,01,01,01,0.00
2011,04,01,01,02,0.00
2011,04,01,01,03,0.00
2011,04,01,01,04,0.00
2011,04,01,01,05,0.00
2011,04,01,01,06,0.00
2011,04,01,01,07,0.00
2011,04,01,01,08,0.00
2011,04,01,01,09,0.00
2011,04,01,01,10,0.00
2011,04,01,01,11,0.00
2011,04,01,01,12,0.00
2011,04,01,01,13,0.00
2011,04,01,01,14,0.00
2011,04,01,01,15,0.00
2011,04,01,01,16,0.00
2011,04,01,01,17,0.00
2011,04,01,01,18,0.00
2011,04,01,01,19,0.00
2011,04,01,01,20,0.00
2011,04,01,01,21,0.00
2011,04,01,01,22,0.00
2011,04,01,01,23,0.00
2011,04,01,01,24,0.00
2011,04,01,01,25,0.00
2011,04,01,01,26,0.00
2011,04,01,01,27,0.00
2011,04,01,01,28,0.00
2011,04,01,01,29,0.00
2011,04,01,01,30,0.00
2011,04,01,01,31,0.00
2011,04,01,01,32,0.00
2011,04,01,01,33,0.00
2011,04,01,01,34,0.00
2011,04,01,01,35,0.00
2011,04,01,01,36,0.00
2011,04,01,01,37,0.00
2011,04,01,01,38,0.00
2011,04,01,01,39,0.00
2011,04,01,01,40,0.00
2011,04,01,01,41,0.00
2011,04,01,01,42,0.00
2011,04,01,01,43,0.00
2011,04,01,01,44,0.00
2011,04,01,01,45,0.00
2011,04,01,01,46,0.00
2011,04,01,01,47,0.00
2011,04,01,01,48,0.00
2011,04,01,01,49,0.00
2011,04,01,01,50,0.00
2011,04,01,01,51,0.00
2011,04,01,01,52,0.00
2011,04,01,01,53,0.00
2011,04,01,01,54,0.00
2011,04,01,01,55,0.00
2011,04,01,01,56,0.00
2011,04,01,01,57,0.00
2011,04,01,01,58,0.00
2011,04,01,01,59,0.00
2011,04,01,02,00,0.00
2011,04,01,02,01,0.00
2011,04,01,02,02,0.00
2011,04,01,02,03,0.00
2011,04,01,02,04,0.00
2011,04,01,02,05,0.00
2011,04,01,02,06,0.00
2011,04,01,02,07,0.00
2011,04,01,02,08,0.00
2011,04,01,02,09,0.00
2011,04,01,02,10,0.00
2011,04,01,02,11,0.00
2011,04,01,02,12,0.00
2011,04,01,02,13,0.00
2011,04,01,02,14,0.00
2011,04,01,02,15,0.00
2011,04,01,02,16,0.00
2011,04,01,02,17,0.00
2011,04,01,02,18,0.00
2011,04,01,02,19,0.00
2011,04,01,02,20,0.00
2011,04,01,02,21,0.00
2011,04,01,02,22,0.00
2011,04,01,02,23,0.00
2011,04,01,02,24,0.00
2011,04,01,02,25,0.00
2011,04,01,02,26,0.00
2011,04,01,02,27,0.00
2011,04,01,02,28,0.00
2011,04,01,02,29,0.00
2011,04,01,02,30,0.00
2011,04,01,02,31,0.00
2011,04,01,02,32,0.00
2011,04,01,02,33,0.00
2011,04,01,02,34,0.00
2011,04,01,02,35,0.00
2011,04,01,02,36,0.00
2011,04,01,02,37,0.00
2011,04,01,02,38,0.00
2011,04,01,02,39,0.00
2011,04,01,02,40,0.00
2011,04,01,02,41,0.00
2011,04,01,02,42,0.00
2011,04,01,02,43,0.00
2011,04,01,02,44,0.00
2011,04,01,02,45,0.00
2011,04,01,02,46,0.00
2011,04,01,02,47,0.00
2011,04,01,02,48,0.00
2011,04,01,02,49,0.00
2011,04,01,02,50,0.00
2011,04,01,02,51,0.00
2011,04,01,02,52,0.00
2011,04,01,02,53,0.00
2011,04,01,02,54,0.00
2011,04,01,02,55,0.00
2011,04,01,02,56,0.00
2011,04,01,02,57,0.00
2011,04,01,02,58,0.00
2011,04,01,02,59,0.00
2011,04,01,03,00,0.00
2011,04,01,03,01,0.00
2011,04,01,03,02,0.00
2011,04,01,03,03,0.00
2011,04,01,03,04,0.00
2011,04,01,03,05,0.00
2011,04,01,03,06,0.00
2011,04,01,03,07,0.00
2011,04,01,03,08,0.00
2011,04,01,03,09,0.00
2011,04,01,03,10,0.00
2011,04,01,03,11,0.00
2011,04,01,03,12,0.00
2011,04,01,03,13,0.00
2011,04,01,03,14,0.00
2011,04,01,03,15,0.00
2011,04,01,03,16,0.00
2011,04,01,03,17,0.00
2011,04,01,03,18,0.00
2011,04,01,03,19,0.00
2011,04,01,03,20,0.00
2011,04,01,03,21,0.00
2011,04,01,03,22,0.00
2011,04,01,03,23,0.00
2011,04,01,03,24,0.00
2011,04,01,03,25,0.00
2011,04,01,03,26,0.00
2011,04,01,03,27,0.00
2011,04,01,03,28,0.00
2011,04,01,03,29,0.00
2011,04,01,03,30,0.00
2011,04,01,03,31,0.00
2011,04,01,03,32,0.00
2011,04,01,03,33,0.00
2011,04,01,03,34,0.00
2011,04,01,03,35,0.00
2011,04,01,03,36,0.00
2011,04,01,03,37,0.00
2011,04,01,03,38,0.00
2011,04,01,03,39,0.00
2011,04,01,03,40,0.00
2011,04,01,03,41,0.00
2011,04,01,03,42,0.00
2011,04,01,03,43,0.00
2011,04,01,03,44,0.00
2011,04,01,03,45,0.00
2011,04,01,03,46,0.00
2011,04,01,03,47,0.00
2011,04,01,03,48,0.00
2011,04,01,03,49,0.00
2011,04,01,03,50,0.00
2011,04,01,03,51,0.00
2011,04,01,03,52,0.00
2011,04,01,03,53,0.00
2011,04,01,03,54,0.00
2011,04,01,03,55,0.00
2011,04,01,03,56,0.00
2011,04,01,03,57,0.00
2011,04,01,03,58,0.00
2011,04,01,03,59,0.00
2011,04,01,04,00,0.00
2011,04,01,04,01,0.00
2011,04,01,04,02,0.00
2011,04,01,04,03,0.00
2011,04,01,04,04,0.00
2011,04,01,04,05,0.00
2011,04,01,04,06,0.00
2011,04,01,04,07,0.00
2011,04,01,04,08,0.00
2011,04,01,04,09,0.00
2011,04,01,04,10,0.00
2011,04,01,04,11,0.00
2011,04,01,04,12,0.00
2011,04,01,04,13,0.00
2011,04,01,04,14,0.00
2011,04,01,04,15,0.00
2011,04,01,04,16,0.00
2011,04,01,04,17,0.00
2011,04,01,04,18,0.00
2011,04,01,04,19,0.00
2011,04,01,04,20,0.00
2011,04,01,04,21,0.00
2011,04,01,04,22,0.00
2011,04,01,04,23,0.00
2011,04,01,04,24,0.00
2011,04,01,04,25,0.00
2011,04,01,04,26,0.00
2011,04,01,04,27,0.00
2011,04,01,04,28,0.00
2011,04,01,04,29,0.00
2011,04,01,04,30,0.00
2011,04,01,04,31,0.00
2011,04,01,04,32,0.00
2011,04,01,04,33,0.00
2011,04,01,04,34,0.00
2011,04,01,04,35,0.00
2011,04,01,04,36,0.00
2011,04,01,04,37,0.00
2011,04,01,04,38,0.00
2011,04,01,04,39,0.00
2011,04,01,04,40,0.00
2011,04,01,04,41,0.00
2011,04,01,04,42,0.00
2011,04,01,04,43,0.00
2011,04,01,04,44,0.00
2011,04,01,04,45,0.00
2011,04,01,04,46,0.00
2011,04,01,04,47,0.00
2011,04,01,04,48,0.00
2011,04,01,04,49,0.00
2011,04,01,04,50,0.00
2011,04,01,04,51,0.00
2011,04,01,04,52,0.00
2011,04,01,04,53,0.00
2011,04,01,04,54,0.00
2011,04,01,04,55,0.00
2011,04,01,04,56,0.00
2011,04,01,04,57,0.00
2011,04,01,04,58,0.00
2011,04,01,04,59,0.00
2011,04,01,05,00,0.00
2011,04,01,05,01,0.00
2011,04,01,05,02,0.00
2011,04,01,05,03,0.00
2011,04,01,05,04,0.00
2011,04,01,05,05,0.00
2011,04,01,05,06,0.00
2011,04,01,05,07,0.00
2011,04,01,05,08,0.00
2011,04,01,05,09,0.00
2011,04,01,05,10,0.00
2011,04,01,05,11,0.00
2011,04,01,05,12,0.00
2011,04,01,05,13,0.00
2011,04,01,05,14,0.00
2011,04,01,05,15,0.00
2011,04,01,05,16,0.00
2011,04,01,05,17,0.00
2011,04,01,05,18,0.00
2011,04,01,05,19,0.00
2011,04,01,05,20,0.00
2011,04,01,05,21,0.00
2011,04,01,05,22,0.00
2011,04,01,05,23,0.00
2011,04,01,05,24,0.00
2011,04,01,05,25,0.00
2011,04,01,05,26,0.00
2011,04,01,05,27,0.00
2011,04,01,05,28,0.00
2011,04,01,05,29,0.00
2011,04,01,05,30,0.00
2011,04,01,05,31,0.00
2011,04,01,05,32,0.00
2011,04,01,05,33,0.00
2011,04,01,05,34,0.00
2011,04,01,05,35,0.00
2011,04,01,05,36,0.00
2011,04,01,05,37,0.00
2011,04,01,05,38,0.00
2011,04,01,05,39,0.00
2011,04,01,05,40,0.00
2011,04,01,05,41,0.00
2011,04,01,05,42,0.00
2011,04,01,05,43,0.00
2011,04,01,05,44,0.00
2011,04,01,05,45,0.00
2011,04,01,05,46,0.00
2011,04,01,05,47,0.00
2011,04,01,05,48,0.00
2011,04,01,05,49,0.00
2011,04,01,05,50,0.00
2011,04,01,05,51,0.00
2011,04,01,05,52,0.00
2011,04,01,05,53,0.00
2011,04,01,05,54,0.00
2011,04,01,05,55,0.00
2011,04,01,05,56,0.00
2011,04,01,05,57,0.00
2011,04,01,05,58,0.00
2011,04,01,05,59,0.00
2011,04,01,06,00,0.00
2011,04,01,06,01,0.00
2011,04,01,06,02,0.00
2011,04,01,06,03,0.00
2011,04,01,06,04,0.00
2011,04,01,06,05,0.00
2011,04,01,06,06,0.00
2011,04,01,06,07,0.00
2011,04,01,06,08,0.00
2011,04,01,06,09,0.00
2011,04,01,06,10,0.00
2011,04,01,06,11,0.00
2011,04,01,06,12,0.00
2011,04,01,06,13,0.00
2011,04,01,06,14,0.00
2011,04,01,06,15,0.00
2011,04,01,06,16,0.00
2011,04,01,06,17,0.00
2011,04,01,06,18,0.00
2011,04,01,06,19,0.00
2011,04,01,06,20,0.00
2011,04,01,06,21,0.00
2011,04,01,06,22,0.00
2011,04,01,06,23,0.00
2011,04,01,06,24,0.00
2011,04,01,06,25,0.00
2011,04,01,06,26,0.00
2011,04,01,06,27,0.00
2011,04,01,06,28,0.00
2011,04,01,06,29,0.00
2011,04,01,06,30,0.00
2011,04,01,06,31,0.00
2011,04,01,06,32,0.00
2011,04,01,06,33,0.00
2011,04,01,06,34,0.00
2011,04,01,06,35,0.00
2011,04,01,06,36,0.00
2011,04,01,06,37,0.00
2011,04,01,06,38,0.00
2011,04,01,06,39,0.00
2011,04,01,06,40,0.00
2011,04,01,06,41,0.00
2011,04,01,06,42,0.00
2011,04,01,06,43,0.00
2011,04,01,06,44,0.00
2011,04,01,06,45,0.00
2011,04,01,06,46,0.00
2011,04,01,06,47,0.00
2011,04,01,06,48,0.00
2011,04,01,06,49,0.00
2011,04,01,06,50,0.00
2011,04,01,06,51,0.00
2011,04,01,06,52,0.00
2011,04,01,06,53,0.00
2011,04,01,06,54,0.00
2011,04,01,06,55,0.00
2011,04,01,06,56,0.00
2011,04,01,06,57,0.00
2011,04,01,06,58,0.00
2011,04,01,06,59,0.00
2011,04,01,07,00,0.00
2011,04,01,07,01,0.00
2011,04,01,07,02,0.00
2011,04,01,07,03,0.00
2011,04,01,07,04,0.00
2011,04,01,07,05,0.00
2011,04,01,07,06,0.00
2011,04,01,07,07,0.00
2011,04,01,07,08,0.00
2011,04,01,07,09,0.00
2011,04,01,07,10,0.00
2011,04,01,07,11,0.00
2011,04,01,07,12,0.00
2011,04,01,07,13,0.00
2011,04,01,07,14,0.00
2011,04,01,07,15,0.00
2011,04,01,07,16,0.00
2011,04,01,07,17,0.00
2011,04,01,07,18,4.70
2011,04,01,07,19,5.00
2011,04,01,07,20,5.00
2011,04,01,07,21,5.00
2011,04,01,07,22,5.00
2011,04,01,07,23,5.00
2011,04,01,07,24,5.00
2011,04,01,07,25,5.00
2011,04,01,07,26,5.00
2011,04,01,07,27,5.00
2011,04,01,07,28,5.00
2011,04,01,07,29,5.40
2011,04,01,07,30,7.00
2011,04,01,07,31,7.00
2011,04,01,07,32,7.00
2011,04,01,07,33,7.00
2011,04,01,07,34,7.00
2011,04,01,07,35,7.00
2011,04,01,07,36,7.00
2011,04,01,07,37,7.00
2011,04,01,07,38,7.00
2011,04,01,07,39,7.00
2011,04,01,07,40,7.00
2011,04,01,07,41,7.00
2011,04,01,07,42,7.00
2011,04,01,07,43,7.90
2011,04,01,07,44,9.00
2011,04,01,07,45,9.00
2011,04,01,07,46,9.00
2011,04,01,07,47,10.10
2011,04,01,07,48,11.00
2011,04,01,07,49,11.00
2011,04,01,07,50,11.00
2011,04,01,07,51,11.00
2011,04,01,07,52,11.00
2011,04,01,07,53,11.00
2011,04,01,07,54,11.00
2011,04,01,07,55,11.00
2011,04,01,07,56,11.80
2011,04,01,07,57,12.00
2011,04,01,07,58,11.20
2011,04,01,07,59,11.00
2011,04,01,08,00,11.00
2011,04,01,08,01,11.00
2011,04,01,08,02,11.90
2011,04,01,08,03,12.00
2011,04,01,08,04,12.00
2011,04,01,08,05,12.00
2011,04,01,08,06,12.00
2011,04,01,08,07,13.80
2011,04,01,08,08,14.00
2011,04,01,08,09,14.00
2011,04,01,08,10,16.00
2011,04,01,08,11,16.10
2011,04,01,08,12,18.10
2011,04,01,08,13,19.00
2011,04,01,08,14,19.00
2011,04,01,08,15,18.90
2011,04,01,08,16,18.00
2011,04,01,08,17,18.00
2011,04,01,08,18,18.00
2011,04,01,08,19,18.20
2011,04,01,08,20,19.00
2011,04,01,08,21,19.50
2011,04,01,08,22,21.00
2011,04,01,08,23,21.60
2011,04,01,08,24,23.00
2011,04,01,08,25,23.00
2011,04,01,08,26,23.00
2011,04,01,08,27,23.00
2011,04,01,08,28,23.80
2011,04,01,08,29,25.00
2011,04,01,08,30,24.10
2011,04,01,08,31,23.00
2011,04,01,08,32,22.00
2011,04,01,08,33,21.00
2011,04,01,08,34,22.10
2011,04,01,08,35,24.10
2011,04,01,08,36,25.50
2011,04,01,08,37,26.00
2011,04,01,08,38,26.00
2011,04,01,08,39,26.00
2011,04,01,08,40,26.00
2011,04,01,08,41,26.00
2011,04,01,08,42,26.00
2011,04,01,08,43,26.00
2011,04,01,08,44,26.00
2011,04,01,08,45,26.00
2011,04,01,08,46,26.00
2011,04,01,08,47,26.00
2011,04,01,08,48,25.20
2011,04,01,08,49,25.00
2011,04,01,08,50,25.00
2011,04,01,08,51,25.90
2011,04,01,08,52,26.00
2011,04,01,08,53,26.00
2011,04,01,08,54,26.00
2011,04,01,08,55,26.00
2011,04,01,08,56,26.00
2011,04,01,08,57,26.00
2011,04,01,08,58,26.00
2011,04,01,08,59,26.00
2011,04,01,09,00,26.00
2011,04,01,09,01,26.00
2011,04,01,09,02,26.00
2011,04,01,09,03,26.30
2011,04,01,09,04,28.00
2011,04,01,09,05,28.00
2011,04,01,09,06,28.00
2011,04,01,09,07,28.00
2011,04,01,09,08,28.00
2011,04,01,09,09,28.00
2011,04,01,09,10,28.60
2011,04,01,09,11,30.00
2011,04,01,09,12,30.00
2011,04,01,09,13,30.00
2011,04,01,09,14,30.70
2011,04,01,09,15,32.00
2011,04,01,09,16,32.00
2011,04,01,09,17,32.00
2011,04,01,09,18,32.00
2011,04,01,09,19,32.00
2011,04,01,09,20,32.00
2011,04,01,09,21,32.50
2011,04,01,09,22,34.10
2011,04,01,09,23,35.00
2011,04,01,09,24,36.20
2011,04,01,09,25,38.20
2011,04,01,09,26,39.60
2011,04,01,09,27,40.00
2011,04,01,09,28,41.30
2011,04,01,09,29,43.40
2011,04,01,09,30,45.40
2011,04,01,09,31,46.00
2011,04,01,09,32,46.80
2011,04,01,09,33,47.00
2011,04,01,09,34,46.20
2011,04,01,09,35,46.00
2011,04,01,09,36,46.00
2011,04,01,09,37,46.00
2011,04,01,09,38,44.30
2011,04,01,09,39,45.80
2011,04,01,09,40,46.00
2011,04,01,09,41,46.00
2011,04,01,09,42,47.00
2011,04,01,09,43,47.00
2011,04,01,09,44,47.00
2011,04,01,09,45,47.00
2011,04,01,09,46,47.00
2011,04,01,09,47,47.20
2011,04,01,09,48,49.00
2011,04,01,09,49,49.00
2011,04,01,09,50,49.00
2011,04,01,09,51,49.00
2011,04,01,09,52,48.60
2011,04,01,09,53,47.00
2011,04,01,09,54,47.50
2011,04,01,09,55,49.00
2011,04,01,09,56,49.50
2011,04,01,09,57,51.00
2011,04,01,09,58,51.00
2011,04,01,09,59,50.30
2011,04,01,10,00,49.00
2011,04,01,10,01,48.30
2011,04,01,10,02,47.00
2011,04,01,10,03,47.00
2011,04,01,10,04,47.90
2011,04,01,10,05,49.00
2011,04,01,10,06,49.00
2011,04,01,10,07,49.00
2011,04,01,10,08,47.90
2011,04,01,10,09,47.00
2011,04,01,10,10,47.00
2011,04,01,10,11,46.40
2011,04,01,10,12,44.80
2011,04,01,10,13,44.00
2011,04,01,10,14,44.00
2011,04,01,10,15,46.00
2011,04,01,10,16,48.40
2011,04,01,10,17,50.40
2011,04,01,10,18,53.20
2011,04,01,10,19,55.60
2011,04,01,10,20,56.00
2011,04,01,10,21,56.00
2011,04,01,10,22,56.00
2011,04,01,10,23,54.30
2011,04,01,10,24,53.20
2011,04,01,10,25,53.00
2011,04,01,10,26,53.00
2011,04,01,10,27,53.00
2011,04,01,10,28,53.00
2011,04,01,10,29,53.00
2011,04,01,10,30,54.00
2011,04,01,10,31,56.10
2011,04,01,10,32,58.00
2011,04,01,10,33,57.80
2011,04,01,10,34,55.90
2011,04,01,10,35,53.90
2011,04,01,10,36,53.20
2011,04,01,10,37,54.30
2011,04,01,10,38,57.10
2011,04,01,10,39,62.00
2011,04,01,10,40,62.20
2011,04,01,10,41,63.00
2011,04,01,10,42,63.00
2011,04,01,10,43,63.00
2011,04,01,10,44,62.70
2011,04,01,10,45,61.40
2011,04,01,10,46,59.30
2011,04,01,10,47,58.00
2011,04,01,10,48,58.00
2011,04,01,10,49,58.80
2011,04,01,10,50,61.30
2011,04,01,10,51,63.00
2011,04,01,10,52,63.00
2011,04,01,10,53,62.50
2011,04,01,10,54,62.00
2011,04,01,10,55,62.00
2011,04,01,10,56,62.50
2011,04,01,10,57,65.30
2011,04,01,10,58,67.00
2011,04,01,10,59,68.20
2011,04,01,11,00,69.00
2011,04,01,11,01,67.70
2011,04,01,11,02,64.20
2011,04,01,11,03,60.90
2011,04,01,11,04,58.60
2011,04,01,11,05,56.50
2011,04,01,11,06,57.50
2011,04,01,11,07,59.60
2011,04,01,11,08,61.60
2011,04,01,11,09,62.00
2011,04,01,11,10,62.00
2011,04,01,11,11,60.30
2011,04,01,11,12,60.00
2011,04,01,11,13,62.70
2011,04,01,11,14,63.00
2011,04,01,11,15,63.00
2011,04,01,11,16,62.00
2011,04,01,11,17,60.10
2011,04,01,11,18,58.00
2011,04,01,11,19,58.00
2011,04,01,11,20,58.10
2011,04,01,11,21,60.10
2011,04,01,11,22,62.10
2011,04,01,11,23,63.60
2011,04,01,11,24,67.00
2011,04,01,11,25,67.40
2011,04,01,11,26,69.00
2011,04,01,11,27,68.50
2011,04,01,11,28,66.50
2011,04,01,11,29,64.50
2011,04,01,11,30,62.70
2011,04,01,11,31,61.40
2011,04,01,11,32,60.00
2011,04,01,11,33,60.00
2011,04,01,11,34,60.00
2011,04,01,11,35,60.00
2011,04,01,11,36,60.00
2011,04,01,11,37,60.90
2011,04,01,11,38,62.50
2011,04,01,11,39,63.90
2011,04,01,11,40,65.00
2011,04,01,11,41,65.00
2011,04,01,11,42,66.00
2011,04,01,11,43,68.10
2011,04,01,11,44,69.00
2011,04,01,11,45,67.80
2011,04,01,11,46,67.00
2011,04,01,11,47,67.00
2011,04,01,11,48,67.00
2011,04,01,11,49,68.30
2011,04,01,11,50,69.00
2011,04,01,11,51,69.00
2011,04,01,11,52,69.00
2011,04,01,11,53,69.70
2011,04,01,11,54,69.20
2011,04,01,11,55,67.40
2011,04,01,11,56,65.40
2011,04,01,11,57,60.80
2011,04,01,11,58,56.60
2011,04,01,11,59,56.00
2011,04,01,12,00,56.00
2011,04,01,12,01,59.60
2011,04,01,12,02,64.80
2011,04,01,12,03,69.70
2011,04,01,12,04,76.70
2011,04,01,12,05,81.00
2011,04,01,12,06,86.10
2011,04,01,12,07,87.80
2011,04,01,12,08,86.30
2011,04,01,12,09,91.70
2011,04,01,12,10,98.00
2011,04,01,12,11,99.30
2011,04,01,12,12,107.00
2011,04,01,12,13,107.40
2011,04,01,12,14,108.60
2011,04,01,12,15,106.50
2011,04,01,12,16,104.20
2011,04,01,12,17,101.00
2011,04,01,12,18,97.10
2011,04,01,12,19,93.50
2011,04,01,12,20,90.30
2011,04,01,12,21,91.00
2011,04,01,12,22,91.80
2011,04,01,12,23,93.00
2011,04,01,12,24,93.80
2011,04,01,12,25,95.90
2011,04,01,12,26,97.00
2011,04,01,12,27,96.10
2011,04,01,12,28,94.00
2011,04,01,12,29,91.90
2011,04,01,12,30,91.00
2011,04,01,12,31,93.20
2011,04,01,12,32,96.20
2011,04,01,12,33,94.60
2011,04,01,12,34,91.70
2011,04,01,12,35,86.40
2011,04,01,12,36,80.80
2011,04,01,12,37,80.40
2011,04,01,12,38,88.00
2011,04,01,12,39,97.80
2011,04,01,12,40,101.50
2011,04,01,12,41,100.50
2011,04,01,12,42,97.60
2011,04,01,12,43,91.90
2011,04,01,12,44,88.40
2011,04,01,12,45,86.30
2011,04,01,12,46,84.30
2011,04,01,12,47,87.60
2011,04,01,12,48,86.20
2011,04,01,12,49,84.10
2011,04,01,12,50,85.90
2011,04,01,12,51,87.90
2011,04,01,12,52,88.00
2011,04,01,12,53,87.80
2011,04,01,12,54,82.70
2011,04,01,12,55,76.70
2011,04,01,12,56,74.00
2011,04,01,12,57,73.40
2011,04,01,12,58,69.80
2011,04,01,12,59,68.20
2011,04,01,13,00,64.70
2011,04,01,13,01,64.20
2011,04,01,13,02,70.20
2011,04,01,13,03,74.80
2011,04,01,13,04,77.00
2011,04,01,13,05,75.20
2011,04,01,13,06,70.00
2011,04,01,13,07,70.00
2011,04,01,13,08,70.00
2011,04,01,13,09,74.40
2011,04,01,13,10,83.60
2011,04,01,13,11,87.20
2011,04,01,13,12,84.70
2011,04,01,13,13,83.00
2011,04,01,13,14,79.50
2011,04,01,13,15,75.00
2011,04,01,13,16,76.80
2011,04,01,13,17,80.10
2011,04,01,13,18,81.00
2011,04,01,13,19,82.70
2011,04,01,13,20,85.10
2011,04,01,13,21,87.30
2011,04,01,13,22,88.00
2011,04,01,13,23,88.00
2011,04,01,13,24,88.00
2011,04,01,13,25,88.00
2011,04,01,13,26,86.60
2011,04,01,13,27,84.50
2011,04,01,13,28,83.20
2011,04,01,13,29,83.00
2011,04,01,13,30,87.00
2011,04,01,13,31,88.00
2011,04,01,13,32,92.20
2011,04,01,13,33,97.30
2011,04,01,13,34,99.80
2011,04,01,13,35,101.80
2011,04,01,13,36,103.90
2011,04,01,13,37,110.60
2011,04,01,13,38,113.80
2011,04,01,13,39,118.00
2011,04,01,13,40,127.00
2011,04,01,13,41,132.00
2011,04,01,13,42,132.20
2011,04,01,13,43,134.50
2011,04,01,13,44,140.00
2011,04,01,13,45,149.70
2011,04,01,13,46,156.60
2011,04,01,13,47,160.60
2011,04,01,13,48,163.00
2011,04,01,13,49,162.80
2011,04,01,13,50,161.50
2011,04,01,13,51,160.50
2011,04,01,13,52,163.40
2011,04,01,13,53,167.60
2011,04,01,13,54,169.00
2011,04,01,13,55,168.40
2011,04,01,13,56,168.50
2011,04,01,13,57,171.00
2011,04,01,13,58,171.40
2011,04,01,13,59,172.00
2011,04,01,14,00,172.90
2011,04,01,14,01,175.00
2011,04,01,14,02,177.40
2011,04,01,14,03,179.00
2011,04,01,14,04,178.40
2011,04,01,14,05,178.00
2011,04,01,14,06,178.00
2011,04,01,14,07,178.60
2011,04,01,14,08,181.50
2011,04,01,14,09,181.80
2011,04,01,14,10,176.40
2011,04,01,14,11,171.90
2011,04,01,14,12,168.30
2011,04,01,14,13,163.50
2011,04,01,14,14,157.50
2011,04,01,14,15,155.20
2011,04,01,14,16,155.00
2011,04,01,14,17,155.80
2011,04,01,14,18,157.60
2011,04,01,14,19,156.30
2011,04,01,14,20,153.40
2011,04,01,14,21,155.60
2011,04,01,14,22,156.00
2011,04,01,14,23,156.00
2011,04,01,14,24,153.10
2011,04,01,14,25,146.30
2011,04,01,14,26,142.00
2011,04,01,14,27,148.50
2011,04,01,14,28,157.90
2011,04,01,14,29,154.60
2011,04,01,14,30,152.10
2011,04,01,14,31,158.00
2011,04,01,14,32,158.00
2011,04,01,14,33,159.70
2011,04,01,14,34,172.80
2011,04,01,14,35,190.40
2011,04,01,14,36,201.50
2011,04,01,14,37,206.20
2011,04,01,14,38,205.00
2011,04,01,14,39,195.70
2011,04,01,14,40,189.60
2011,04,01,14,41,197.20
2011,04,01,14,42,212.60
2011,04,01,14,43,226.40
2011,04,01,14,44,233.60
2011,04,01,14,45,233.60
2011,04,01,14,46,224.60
2011,04,01,14,47,214.90
2011,04,01,14,48,211.00
2011,04,01,14,49,211.00
2011,04,01,14,50,211.00
2011,04,01,14,51,206.30
2011,04,01,14,52,195.40
2011,04,01,14,53,185.10
2011,04,01,14,54,175.60
2011,04,01,14,55,170.10
2011,04,01,14,56,170.20
2011,04,01,14,57,171.60
2011,04,01,14,58,172.00
2011,04,01,14,59,173.40
2011,04,01,15,00,175.40
2011,04,01,15,01,179.50
2011,04,01,15,02,181.00
2011,04,01,15,03,195.40
2011,04,01,15,04,199.80
2011,04,01,15,05,197.60
2011,04,01,15,06,193.60
2011,04,01,15,07,190.30
2011,04,01,15,08,190.00
2011,04,01,15,09,192.70
2011,04,01,15,10,198.70
2011,04,01,15,11,210.40
2011,04,01,15,12,229.00
2011,04,01,15,13,236.60
2011,04,01,15,14,236.10
2011,04,01,15,15,217.60
2011,04,01,15,16,211.00
2011,04,01,15,17,210.60
2011,04,01,15,18,206.50
2011,04,01,15,19,202.30
2011,04,01,15,20,204.40
2011,04,01,15,21,208.70
2011,04,01,15,22,223.00
2011,04,01,15,23,242.50
2011,04,01,15,24,230.80
2011,04,01,15,25,198.30
2011,04,01,15,26,172.60
2011,04,01,15,27,156.70
2011,04,01,15,28,148.10
2011,04,01,15,29,146.70
2011,04,01,15,30,148.00
2011,04,01,15,31,146.40
2011,04,01,15,32,144.00
2011,04,01,15,33,144.00
2011,04,01,15,34,142.60
2011,04,01,15,35,139.00
2011,04,01,15,36,136.00
2011,04,01,15,37,136.10
2011,04,01,15,38,139.60
2011,04,01,15,39,145.30
2011,04,01,15,40,149.60
2011,04,01,15,41,152.20
2011,04,01,15,42,151.70
2011,04,01,15,43,149.10
2011,04,01,15,44,146.70
2011,04,01,15,45,147.40
2011,04,01,15,46,148.70
2011,04,01,15,47,152.00
2011,04,01,15,48,158.20
2011,04,01,15,49,169.50
2011,04,01,15,50,172.00
2011,04,01,15,51,204.40
2011,04,01,15,52,230.00
2011,04,01,15,53,251.90
2011,04,01,15,54,270.30
2011,04,01,15,55,246.80
2011,04,01,15,56,208.00
2011,04,01,15,57,186.90
2011,04,01,15,58,181.20
2011,04,01,15,59,178.00
2011,04,01,16,00,165.60
2011,04,01,16,01,141.10
2011,04,01,16,02,124.40
2011,04,01,16,03,114.00
2011,04,01,16,04,113.70
2011,04,01,16,05,110.60
2011,04,01,16,06,106.30
2011,04,01,16,07,102.30
2011,04,01,16,08,104.20
2011,04,01,16,09,104.00
2011,04,01,16,10,99.50
2011,04,01,16,11,99.60
2011,04,01,16,12,105.80
2011,04,01,16,13,111.00
2011,04,01,16,14,110.30
2011,04,01,16,15,110.30
2011,04,01,16,16,117.20
2011,04,01,16,17,125.00
2011,04,01,16,18,131.10
2011,04,01,16,19,141.00
2011,04,01,16,20,139.30
2011,04,01,16,21,135.50
2011,04,01,16,22,130.70
2011,04,01,16,23,124.00
2011,04,01,16,24,122.10
2011,04,01,16,25,124.00
2011,04,01,16,26,125.00
2011,04,01,16,27,126.10
2011,04,01,16,28,127.00
2011,04,01,16,29,124.40
2011,04,01,16,30,119.80
2011,04,01,16,31,113.40
2011,04,01,16,32,106.90
2011,04,01,16,33,106.40
2011,04,01,16,34,105.50
2011,04,01,16,35,108.00
2011,04,01,16,36,116.10
2011,04,01,16,37,125.20
2011,04,01,16,38,129.40
2011,04,01,16,39,131.70
2011,04,01,16,40,133.70
2011,04,01,16,41,134.90
2011,04,01,16,42,136.80
2011,04,01,16,43,135.10
2011,04,01,16,44,128.70
2011,04,01,16,45,125.20
2011,04,01,16,46,127.80
2011,04,01,16,47,134.60
2011,04,01,16,48,141.00
2011,04,01,16,49,140.50
2011,04,01,16,50,130.20
2011,04,01,16,51,111.80
2011,04,01,16,52,101.80
2011,04,01,16,53,100.00
2011,04,01,16,54,100.80
2011,04,01,16,55,106.20
2011,04,01,16,56,113.60
2011,04,01,16,57,117.00
2011,04,01,16,58,120.80
2011,04,01,16,59,121.20
2011,04,01,17,00,115.10
2011,04,01,17,01,113.90
2011,04,01,17,02,115.10
2011,04,01,17,03,112.30
2011,04,01,17,04,111.00
2011,04,01,17,05,110.30
2011,04,01,17,06,112.60
2011,04,01,17,07,121.80
2011,04,01,17,08,131.50
2011,04,01,17,09,137.00
2011,04,01,17,10,132.30
2011,04,01,17,11,126.00
2011,04,01,17,12,122.50
2011,04,01,17,13,113.90
2011,04,01,17,14,103.80
2011,04,01,17,15,94.60
2011,04,01,17,16,86.80
2011,04,01,17,17,77.50
2011,04,01,17,18,65.80
2011,04,01,17,19,56.80
2011,04,01,17,20,50.50
2011,04,01,17,21,49.00
2011,04,01,17,22,49.00
2011,04,01,17,23,47.50
2011,04,01,17,24,43.10
2011,04,01,17,25,38.00
2011,04,01,17,26,33.80
2011,04,01,17,27,33.00
2011,04,01,17,28,33.00
2011,04,01,17,29,32.10